Wind_Speed
11 10 11 11 11 14 15 14 14 14 15 15 16 17 17 16 15 13 13 12 11 11 9 9 10 10 10 10 9 7 6 6 6 5 5 5 5 7 9 10 10 10 10 9 8 7 7 6 7 6 5 5 6 6 5 5 5 5 3 3 4 3
12 10 10 10 9 11 12 13 14 14 15 14 16 16 17 16 15 14 13 13 12 10 9 8 9 10 10 10 10 8 7 7 7 7 6 5 5 6 9 11 12 12 12 11 9 8 7 6 7 7 6 5 7 7 6 6 6 4 4 3 2 3
12 10 9 9 9 9 10 12 13 13 14 14 14 16 17 16 15 14 12 12 10 9 8 8 8 9 10 11 10 9 8 8 8 8 7 6 6 6 8 11 12 12 12 12 10 9 7 7 7 7 7 7 7 7 7 8 6 5 4 3 3 3
12 10 9 9 9 9 9 10 12 12 12 13 13 14 15 15 14 12 11 11 10 9 7 7 8 8 10 10 9 9 8 8 9 9 8 7 6 6 7 9 11 13 13 12 10 9 8 8 8 7 7 9 8 7 8 8 7 6 4 4 5 4
12 11 10 8 9 9 9 9 10 11 11 12 13 13 14 14 13 11 11 9 10 11 8 7 9 8 9 9 8 7 7 7 8 9 9 7 6 6 5 7 9 11 13 12 10 10 9 9 9 8 8 10 9 8 8 8 8 6 4 4 4 3
12 11 10 8 8 8 9 8 7 9 10 11 11 11 12 12 11 12 12 10 11 12 9 8 8 7 8 8 8 7 7 8 8 9 10 9 8 7 6 7 7 9 12 12 11 10 11 10 9 8 8 10 10 9 9 8 7 6 5 5 3 2
11 10 10 9 8 8 9 8 7 8 9 10 10 10 9 10 11 12 12 12 12 11 9 8 7 7 8 9 9 8 8 9 8 8 10 10 8 7 6 8 8 8 12 13 13 12 11 11 11 9 7 9 10 10 10 9 7 6 6 5 4 2
9 9 9 9 8 8 9 8 8 7 8 10 10 10 10 10 11 12 13 13 12 10 10 9 8 9 10 10 9 9 10 10 10 9 11 11 9 8 7 9 9 8 11 13 12 12 11 10 11 11 9 10 10 10 11 10 8 7 6 5 5 3
8 8 8 8 7 8 8 7 7 7 8 9 9 10 11 12 10 11 13 12 11 11 10 9 9 11 11 10 10 12 12 11 11 11 12 12 11 10 9 9 8 7 10 13 11 11 12 11 11 11 10 10 10 10 12 11 9 8 6 6 6 4
8 8 8 7 8 8 7 7 7 7 7 7 8 10 11 11 11 11 11 11 12 13 13 12 11 11 12 11 12 12 12 11 12 12 12 12 12 11 10 9 8 7 8 12 12 11 12 13 11 11 11 10 10 10 11 11 10 8 7 6 6 6
9 9 8 8 8 8 8 8 8 7 7 7 8 10 10 9 9 9 11 13 15 15 14 13 11 12 13 13 13 12 13 13 12 13 12 13 13 12 12 12 10 8 8 11 13 12 11 12 13 12 11 11 11 11 11 11 10 9 8 7 7 7
8 8 8 7 7 7 7 7 8 8 8 8 8 9 8 9 8 9 12 14 14 14 13 13 13 14 15 14 13 13 14 14 13 14 14 14 14 13 12 14 13 11 10 12 14 14 12 11 13 13 12 12 12 12 11 11 11 10 9 8 8 8
7 7 7 6 6 6 6 6 7 8 9 9 9 8 8 9 10 10 12 12 12 13 13 13 14 15 16 15 14 13 14 15 15 15 14 14 15 14 13 12 11 10 9 10 12 16 16 13 12 13 13 12 12 13 12 12 11 11 10 9 9 9
6 5 6 6 6 5 5 6 7 8 8 9 8 8 7 8 9 10 11 12 12 12 12 13 14 14 16 15 14 14 14 14 14 14 13 13 15 16 15 12 9 8 9 9 11 16 17 15 14 14 14 13 13 13 13 13 13 12 12 11 10 10
6 5 6 6 5 4 6 7 8 8 8 8 8 7 6 6 6 6 8 9 11 12 13 13 13 14 14 14 13 13 13 12 12 12 12 13 15 17 17 13 11 10 11 11 11 13 14 14 15 15 15 15 15 13 13 14 14 13 13 12 12 11
5 5 5 5 6 6 7 7 8 7 7 7 6 5 5 4 3 4 5 6 8 8 9 10 11 12 14 14 12 13 13 12 11 11 11 12 13 16 17 15 13 12 12 11 11 12 13 13 14 14 15 15 15 15 14 14 15 15 14 13 13 12
6 5 5 5 6 6 6 6 6 6 6 5 3 2 2 3 3 4 5 5 5 5 5 5 6 9 11 12 12 11 10 10 10 10 10 11 11 14 17 17 16 16 15 13 12 12 12 12 13 14 14 15 15 15 15 15 14 14 14 15 14 13
6 5 5 5 4 4 5 5 5 5 5 4 2 2 2 3 3 3 4 6 6 5 5 5 5 7 8 9 9 9 9 8 8 9 9 9 10 12 16 17 17 18 18 16 15 14 13 12 12 12 13 14 15 15 15 16 15 14 14 15 15 14
7 5 5 5 5 5 5 5 4 4 4 2 1 2 3 4 3 2 4 6 6 6 5 5 7 6 6 6 6 7 10 10 8 7 8 9 9 10 14 17 18 19 20 20 18 18 17 15 14 12 12 13 15 16 16 16 16 15 14 14 14 14
7 6 6 6 6 6 5 4 3 3 2 3 4 4 4 4 3 2 2 3 4 4 4 5 7 5 4 4 4 4 6 9 9 8 8 8 8 9 12 15 17 19 21 22 22 22 21 19 18 17 16 16 17 17 17 17 17 15 14 14 14 14
8 7 7 7 7 7 6 4 4 4 4 4 5 4 4 5 4 4 4 3 3 4 4 5 6 5 3 4 4 2 2 4 6 7 8 9 10 9 10 11 14 17 20 21 22 22 22 21 21 20 19 20 22 20 17 17 19 17 15 15 15 16
8 8 9 8 7 7 7 6 5 5 5 6 6 5 4 4 4 4 4 4 4 3 3 4 5 5 3 3 2 1 1 2 2 4 5 8 9 8 8 9 11 13 16 18 18 19 20 20 20 19 18 19 21 21 17 15 18 18 16 15 16 17
9 9 10 9 8 8 8 8 7 7 7 7 7 6 6 5 5 5 5 4 3 3 4 3 4 4 3 2 2 2 2 2 2 3 3 3 5 6 5 5 7 8 10 12 14 17 18 17 17 17 16 15 15 16 15 15 15 14 15 15 15 16
10 10 10 10 10 9 8 8 9 9 9 8 7 6 7 7 7 6 5 5 5 5 5 6 6 5 4 3 3 4 3 3 3 3 2 2 2 3 4 3 4 4 5 6 9 12 14 14 15 15 15 13 11 9 10 12 12 13 16 14 14 14
11 11 11 11 10 10 9 8 9 10 10 9 7 7 7 7 7 6 5 5 6 6 6 7 7 6 5 4 4 4 4 3 3 3 3 2 2 2 2 2 2 3 4 4 4 5 8 10 11 12 12 11 9 8 9 11 11 14 17 15 15 14
13 12 12 11 10 11 10 8 9 10 10 10 8 7 7 6 6 6 5 5 6 6 6 6 7 7 6 5 4 4 4 4 3 3 4 3 2 2 2 1 2 2 3 4 3 2 4 6 7 8 11 11 9 9 9 11 10 11 13 15 19 17
15 14 14 12 11 12 11 9 8 9 10 10 9 8 8 7 6 5 5 5 6 6 6 7 7 6 6 5 4 4 4 4 4 3 4 3 2 2 2 2 2 2 1 2 2 3 3 4 5 7 9 10 11 10 8 8 8 8 8 11 15 15
17 15 14 13 12 12 12 11 10 11 12 10 8 9 8 7 7 5 4 4 5 5 6 6 6 6 6 6 6 6 6 6 5 5 5 4 2 2 1 1 2 1 1 1 1 2 3 2 3 6 7 7 8 8 7 7 8 9 9 8 9 11
19 17 15 14 13 13 13 12 12 13 14 12 10 9 8 7 6 5 4 4 4 4 5 5 5 5 6 6 6 6 6 6 6 6 5 4 3 3 3 2 1 1 1 1 1 1 2 2 2 3 3 3 4 4 6 7 7 7 8 8 8 8
21 18 17 16 15 14 15 15 14 15 16 15 13 11 9 8 7 6 5 4 3 4 4 4 4 4 4 4 4 4 4 4 5 5 4 4 4 4 4 4 4 3 2 1 1 1 2 2 3 3 2 3 3 3 4 5 6 5 6 8 8 8
23 20 19 18 17 16 16 17 16 16 16 16 15 13 11 9 8 7 6 5 4 4 4 3 3 3 3 3 2 2 2 3 4 4 5 4 4 5 5 5 5 5 5 4 3 2 1 2 3 4 3 4 4 5 5 5 6 5 5 6 8 9
25 23 21 20 19 18 18 19 18 17 17 16 15 14 12 10 9 7 7 6 6 6 5 4 4 3 3 2 1 0 1 2 3 4 4 4 3 4 4 5 5 6 7 7 6 6 5 4 3 3 3 3 4 5 6 7 7 7 6 6 7 8
27 25 24 22 21 20 19 19 19 19 18 18 16 14 12 11 9 8 8 8 8 7 7 6 5 4 4 3 2 2 2 2 2 2 2 2 2 2 3 4 4 5 6 7 7 7 7 6 5 5 4 3 3 4 6 7 8 8 8 8 7 8
29 27 26 24 23 22 20 19 20 20 20 19 17 16 14 12 10 9 9 9 9 8 8 7 6 6 5 4 4 4 3 3 3 3 3 2 1 2 2 3 4 5 5 6 6 6 6 6 6 6 5 5 4 4 6 7 8 8 9 9 7 8
31 29 28 26 24 23 22 20 20 21 21 20 19 17 15 13 12 11 10 10 10 9 9 8 8 8 7 6 6 5 5 5 5 5 4 3 2 1 2 2 3 4 5 5 5 6 6 5 5 5 5 4 4 5 6 6 6 7 8 10 9 9
32 30 29 27 25 24 23 22 22 21 22 21 20 19 17 15 14 12 11 11 11 10 10 9 10 10 9 8 7 7 7 7 7 6 6 5 3 2 1 1 2 3 4 5 6 7 7 7 6 5 5 4 4 5 5 5 6 6 7 8 10 10
31 31 30 28 27 26 25 25 24 22 21 22 21 20 19 18 16 14 13 12 12 12 11 11 12 11 10 10 9 9 9 9 9 8 8 7 5 4 3 3 3 3 4 5 6 7 7 8 8 7 7 6 5 5 6 5 6 6 7 7 7 8
Wind_Direction
170 179 187 182 181 189 192 198 202 206 211 211 209 208 208 209 203 198 198 196 198 203 209 208 206 203 195 192 189 185 192 204 220 223 224 233 233 231 229 234 231 225 229 232 236 234 224 213 199 191 190 193 181 182 181 161 178 179 177 201 166 165
167 176 188 179 174 184 186 192 199 205 209 210 211 211 211 210 204 202 205 205 205 210 216 215 211 206 197 195 191 187 192 197 209 217 218 224 234 238 234 236 237 234 234 232 234 239 241 238 225 206 195 197 189 186 196 195 182 175 188 189 181 190
170 173 183 183 176 176 177 184 195 203 206 207 210 213 212 212 211 210 214 211 210 218 220 217 219 210 198 197 193 187 193 193 195 207 217 226 231 235 235 235 238 239 239 235 230 233 233 239 244 226 205 200 202 196 198 205 191 178 187 177 216 229
176 173 178 187 186 178 173 178 186 194 203 204 204 209 211 214 216 213 217 214 211 220 223 224 227 215 202 202 199 193 198 201 196 202 214 228 235 234 233 233 235 237 241 238 226 226 229 229 235 232 218 207 208 207 196 206 201 180 183 184 217 237
181 182 184 188 189 184 179 178 178 183 194 199 200 204 208 214 215 211 215 218 221 221 217 231 232 210 204 209 209 208 209 211 205 205 212 219 228 228 225 226 232 234 237 234 220 216 220 225 229 228 231 218 210 211 199 206 208 188 188 198 208 208
187 190 193 194 193 193 193 188 179 180 189 198 201 201 204 213 217 215 214 215 226 226 214 227 236 210 203 207 208 213 211 212 209 208 213 213 219 221 213 220 228 232 234 232 226 222 218 221 225 222 233 227 216 215 206 206 214 202 194 209 223 191
195 197 202 204 205 209 210 208 204 193 190 198 201 200 202 209 216 217 215 217 223 225 218 218 226 214 210 210 209 211 210 210 210 213 217 213 222 225 215 228 233 236 238 235 232 233 228 228 228 217 223 229 220 219 215 207 213 214 201 209 227 198
203 208 212 212 213 220 223 228 232 211 197 202 201 199 201 204 213 215 214 218 217 216 218 215 215 217 216 214 212 214 214 213 208 212 218 214 223 228 221 233 240 239 237 232 230 230 227 231 236 221 217 229 223 221 221 212 211 215 210 208 220 218
208 211 215 214 216 226 229 232 234 211 203 209 201 200 203 201 202 210 214 215 215 216 220 220 220 219 217 216 218 222 225 225 219 217 218 215 219 226 226 233 239 238 230 223 219 224 222 221 234 227 219 228 227 224 224 220 215 212 214 213 214 227
200 203 207 211 214 223 225 223 226 216 213 211 203 208 208 204 200 204 213 211 215 220 219 222 225 220 218 220 225 229 231 233 232 231 228 222 223 230 232 230 228 226 231 228 215 218 225 217 223 230 224 223 225 225 223 223 223 215 219 227 224 232
192 197 198 204 208 214 217 215 220 224 227 216 211 216 211 209 208 203 208 209 214 220 220 225 230 226 223 224 227 231 236 239 240 241 238 229 230 234 234 234 233 215 216 231 220 213 221 218 218 224 227 224 223 226 222 219 219 219 222 230 237 241
186 191 191 199 204 208 211 212 216 219 229 231 225 225 216 211 209 206 215 216 219 224 225 227 230 233 234 232 231 233 240 246 247 248 244 237 236 234 234 241 243 229 216 222 221 213 213 215 215 217 223 223 223 226 226 223 220 222 226 228 237 242
181 185 184 198 206 204 205 206 211 212 222 234 235 231 227 224 218 216 222 222 222 227 227 227 228 234 240 241 239 239 244 246 247 249 246 242 238 231 234 241 242 244 235 223 219 218 218 217 215 215 218 221 225 227 226 231 229 226 229 231 237 242
175 181 189 203 205 194 194 196 203 211 220 229 232 230 232 234 230 231 233 230 230 233 235 234 230 232 241 245 243 243 248 247 245 247 243 238 235 227 230 233 224 224 221 211 210 218 224 222 218 217 217 217 224 227 226 231 234 234 235 233 235 239
171 185 200 201 189 187 189 192 199 206 218 226 225 223 229 235 230 233 240 239 239 242 244 243 238 236 241 245 244 246 251 252 248 246 239 233 230 224 225 226 215 207 209 208 205 213 223 224 221 220 221 222 223 225 228 231 233 234 237 236 237 238
183 192 206 198 179 187 192 194 201 204 216 228 226 219 220 221 210 208 220 234 239 241 241 242 242 241 242 244 247 250 253 251 246 240 232 228 225 220 221 220 211 205 209 211 207 212 221 224 225 224 226 229 230 229 230 232 233 234 236 237 238 239
198 196 203 202 183 185 187 190 204 215 227 233 225 206 204 206 201 212 226 241 246 240 231 234 242 241 240 241 241 246 250 245 239 234 230 227 222 217 217 216 212 208 207 208 210 216 220 222 226 230 233 233 235 237 236 236 236 236 237 236 235 236
208 199 193 194 186 183 181 191 210 229 247 256 235 163 161 169 174 201 228 243 252 248 232 222 231 235 235 235 229 231 238 237 235 232 227 223 219 218 217 216 215 213 211 208 212 218 223 225 225 229 234 233 235 240 240 239 237 235 234 234 234 232
216 203 192 187 184 187 189 203 219 234 249 254 152 148 156 154 156 183 221 237 243 240 231 217 218 225 230 232 224 226 230 227 226 225 223 221 217 214 216 218 217 217 215 213 215 220 223 227 230 231 234 235 237 240 241 241 238 236 232 230 232 230
221 200 190 189 185 186 189 197 193 194 186 142 137 145 143 130 131 155 180 214 216 210 215 217 216 217 223 228 225 232 235 229 225 220 221 226 226 220 218 220 220 221 221 219 219 222 223 226 232 234 236 238 240 240 242 242 238 235 232 229 230 230
224 198 183 184 184 182 180 184 177 170 157 143 145 142 133 128 135 150 150 147 154 170 192 211 212 202 205 221 222 226 235 234 234 228 227 231 233 232 228 222 221 226 228 226 224 225 226 228 232 236 238 242 245 243 239 241 239 233 230 231 231 231
225 199 180 176 180 182 178 177 174 165 152 144 145 138 138 144 139 136 136 132 131 142 162 189 191 177 177 201 206 197 186 208 229 228 229 233 234 235 231 221 222 229 233 231 229 228 228 230 234 239 241 245 252 250 241 238 240 238 235 233 234 236
221 202 183 175 178 186 182 174 168 163 153 151 157 153 149 144 129 120 117 106 101 113 117 122 135 136 141 160 152 136 134 149 171 176 187 208 220 223 220 214 215 223 232 234 232 229 229 231 232 233 238 247 255 256 250 244 240 241 241 235 235 239
214 201 188 180 182 187 184 172 165 164 158 157 161 151 140 132 122 116 105 91 82 91 105 110 113 118 131 142 134 129 127 127 142 148 143 157 180 198 206 199 184 192 214 226 230 228 227 231 231 230 236 243 245 248 254 252 241 237 241 240 241 243
212 200 191 186 186 185 183 176 169 167 161 157 154 143 136 130 123 115 103 90 77 77 92 108 117 123 127 125 123 128 128 122 128 128 117 130 154 162 188 203 180 186 206 195 192 211 218 223 226 228 228 225 225 229 242 251 247 246 247 243 242 241
211 200 194 191 189 186 183 184 178 171 165 159 154 150 150 144 132 124 113 98 83 79 82 94 112 124 125 122 119 120 119 115 122 131 128 131 144 142 140 163 163 196 228 196 171 186 210 217 223 227 219 212 217 223 232 240 244 257 254 245 247 242
212 203 197 191 189 187 183 183 180 173 168 163 160 166 168 159 148 141 127 107 91 85 82 86 99 110 117 119 113 111 115 115 114 118 125 126 133 148 158 189 177 167 212 186 186 215 215 215 237 245 225 213 221 222 221 225 228 246 253 252 254 245
214 206 201 195 191 189 182 178 176 171 169 167 168 180 181 169 161 158 142 120 104 95 90 93 99 102 106 107 107 107 104 105 101 91 92 98 101 105 118 205 205 190 203 177 163 203 209 209 236 251 235 218 228 231 227 228 229 236 244 255 254 241
215 209 205 199 194 191 183 179 179 175 174 175 177 184 187 184 181 174 164 150 129 113 104 106 108 109 109 106 104 102 97 95 91 85 82 76 73 78 70 66 79 83 171 216 228 185 189 201 215 238 238 233 243 240 235 240 242 244 250 260 259 247
215 212 210 204 198 194 186 181 185 185 182 184 188 190 191 196 199 192 188 183 160 141 129 124 122 120 117 115 104 92 83 76 70 71 67 51 49 56 55 54 54 50 59 58 292 239 210 221 239 245 236 239 250 242 239 248 259 271 266 264 266 267
215 213 214 209 201 197 191 187 189 192 190 192 195 197 200 205 209 207 209 208 196 180 166 156 153 144 139 137 119 85 61 46 43 46 48 43 37 37 40 44 47 46 42 41 36 10 307 275 271 267 243 232 238 240 237 235 244 260 268 266 269 272
215 214 216 214 206 200 197 193 194 196 196 199 201 202 207 214 217 219 220 219 210 202 198 194 187 182 183 180 177 104 10 12 15 25 36 42 41 38 41 42 44 46 42 35 34 31 22 10 346 319 288 259 256 259 254 245 244 251 253 253 263 270
217 215 217 216 210 206 201 197 199 200 200 203 206 207 210 217 226 227 223 225 222 213 212 215 214 213 212 211 225 255 289 308 328 351 3 23 43 47 49 49 46 42 39 32 25 23 21 18 14 7 358 334 302 283 277 274 269 267 262 255 258 271
220 219 219 219 215 211 207 202 202 203 204 206 208 210 211 214 225 226 223 232 232 217 215 223 226 228 231 228 232 245 259 275 291 306 319 334 7 42 49 42 36 34 31 23 17 15 11 8 5 1 358 352 336 314 305 305 302 295 288 278 265 264
220 221 221 221 220 217 214 208 206 206 208 209 211 213 214 214 222 226 228 239 240 225 219 220 221 228 237 238 241 248 255 266 276 284 294 306 324 360 50 38 15 13 14 8 3 1 358 357 354 351 349 345 334 322 315 314 313 308 303 301 293 282
221 223 224 224 223 223 220 216 213 210 211 213 214 215 217 219 223 226 231 241 245 239 228 218 222 233 240 241 245 249 254 262 269 277 284 293 307 318 333 348 338 340 348 348 347 347 345 343 343 341 341 337 325 317 312 307 304 299 296 301 304 301
224 225 228 227 227 227 226 224 221 217 215 216 217 219 222 225 227 229 235 241 245 247 239 227 231 242 244 243 246 248 251 258 265 272 279 286 294 304 312 310 303 310 321 327 333 337 336 336 339 341 343 345 340 332 326 321 313 306 301 299 296 297
Height
1532 1533 1533 1534 1535 1536 1537 1539 1539 1540 1541 1542 1543 1543 1543 1544 1545 1545 1546 1547 1547 1548 1549 1549 1549 1550 1551 1551 1552 1554 1554 1554 1554 1555 1555 1555 1556 1556 1556 1556 1557 1558 1558 1558 1559 1560 1560 1561 1561 1562 1563 1564 1564 1564 1564 1565 1566 1567 1568 1567 1567 1567
1532 1533 1533 1534 1535 1535 1536 1538 1538 1539 1540 1541 1542 1542 1543 1544 1545 1545 1546 1546 1546 1547 1548 1548 1549 1550 1550 1551 1552 1553 1554 1554 1554 1554 1555 1555 1556 1556 1556 1556 1556 1557 1558 1558 1559 1560 1560 1561 1561 1562 1563 1564 1564 1564 1565 1565 1566 1568 1568 1568 1567 1567
1532 1533 1534 1534 1535 1535 1536 1537 1538 1538 1539 1541 1542 1542 1543 1544 1544 1545 1545 1545 1545 1545 1546 1547 1547 1548 1549 1550 1552 1553 1553 1554 1554 1554 1554 1555 1555 1555 1555 1555 1556 1557 1557 1558 1559 1560 1561 1562 1562 1562 1563 1564 1564 1564 1565 1565 1566 1567 1568 1568 1568 1566
1532 1533 1534 1534 1535 1535 1536 1537 1538 1538 1539 1540 1541 1542 1543 1543 1544 1544 1545 1545 1545 1545 1545 1545 1546 1548 1549 1550 1551 1552 1553 1553 1554 1554 1554 1554 1554 1554 1554 1554 1555 1556 1557 1558 1559 1560 1562 1563 1562 1562 1563 1564 1564 1564 1565 1565 1566 1567 1568 1568 1567 1566
1532 1533 1534 1535 1535 1535 1536 1537 1537 1538 1539 1539 1540 1541 1542 1543 1544 1544 1543 1544 1545 1544 1545 1546 1547 1548 1548 1550 1551 1551 1552 1553 1553 1554 1554 1554 1554 1554 1554 1554 1554 1555 1556 1557 1558 1560 1561 1562 1562 1562 1563 1563 1564 1564 1565 1566 1566 1567 1568 1568 1567 1566
1533 1533 1534 1535 1535 1535 1536 1536 1537 1538 1539 1539 1540 1541 1542 1542 1543 1544 1543 1544 1545 1544 1545 1546 1547 1548 1548 1550 1551 1551 1552 1552 1553 1554 1554 1554 1554 1554 1554 1554 1554 1555 1556 1556 1557 1558 1559 1560 1561 1562 1563 1563 1563 1564 1565 1565 1566 1566 1567 1567 1567 1566
1532 1533 1534 1535 1535 1535 1536 1536 1537 1537 1538 1539 1539 1540 1541 1543 1543 1543 1543 1544 1544 1544 1545 1547 1547 1547 1548 1549 1550 1550 1551 1551 1552 1553 1553 1553 1553 1553 1554 1554 1554 1554 1555 1555 1556 1557 1558 1559 1560 1562 1563 1563 1563 1564 1565 1565 1565 1566 1566 1567 1567 1566
1532 1533 1534 1534 1535 1535 1536 1536 1536 1537 1538 1539 1539 1540 1541 1542 1542 1542 1543 1544 1544 1545 1545 1546 1547 1547 1547 1548 1549 1549 1549 1550 1551 1552 1552 1552 1552 1552 1553 1554 1553 1553 1554 1555 1556 1557 1558 1559 1560 1560 1562 1563 1563 1564 1564 1565 1565 1565 1566 1567 1567 1566
1532 1533 1533 1534 1534 1535 1535 1535 1536 1537 1538 1538 1539 1540 1540 1541 1542 1542 1542 1543 1544 1545 1545 1546 1546 1546 1547 1547 1548 1547 1547 1548 1549 1550 1550 1550 1551 1551 1552 1552 1553 1553 1553 1554 1555 1556 1557 1559 1559 1560 1561 1562 1563 1563 1563 1564 1565 1565 1566 1566 1566 1566
1532 1532 1533 1533 1534 1534 1535 1535 1536 1536 1537 1538 1539 1539 1539 1539 1540 1540 1541 1543 1543 1544 1544 1544 1544 1545 1546 1546 1546 1546 1547 1547 1548 1548 1549 1550 1550 1550 1551 1551 1552 1552 1553 1553 1554 1555 1556 1557 1559 1560 1560 1562 1562 1563 1563 1563 1564 1565 1566 1566 1566 1566
1531 1532 1532 1533 1534 1534 1534 1535 1535 1536 1536 1537 1538 1537 1538 1538 1538 1539 1540 1541 1542 1542 1543 1543 1544 1544 1544 1544 1545 1545 1545 1546 1547 1547 1548 1549 1549 1550 1550 1550 1551 1552 1553 1553 1553 1554 1555 1556 1558 1559 1560 1561 1562 1562 1563 1563 1564 1565 1566 1566 1566 1565
1531 1531 1532 1533 1533 1533 1534 1534 1535 1535 1536 1536 1536 1537 1537 1537 1538 1539 1539 1539 1540 1541 1542 1543 1543 1543 1543 1543 1544 1544 1544 1545 1546 1546 1546 1547 1548 1549 1549 1549 1550 1550 1551 1551 1551 1552 1553 1555 1556 1558 1559 1560 1561 1562 1562 1562 1563 1564 1565 1565 1566 1566
1530 1530 1531 1532 1532 1533 1533 1534 1534 1535 1535 1535 1535 1536 1537 1537 1537 1538 1538 1539 1540 1540 1541 1542 1542 1542 1542 1542 1543 1543 1543 1544 1544 1544 1544 1545 1546 1547 1548 1548 1548 1548 1548 1548 1549 1550 1552 1553 1554 1556 1557 1559 1560 1560 1562 1562 1562 1563 1564 1564 1565 1565
1529 1530 1530 1531 1532 1532 1533 1533 1533 1534 1534 1534 1535 1536 1536 1536 1536 1537 1537 1538 1539 1539 1540 1540 1541 1541 1541 1541 1542 1542 1542 1542 1543 1543 1543 1544 1544 1546 1547 1547 1548 1548 1547 1548 1549 1549 1550 1551 1552 1553 1555 1556 1558 1559 1560 1561 1562 1562 1563 1563 1564 1565
1529 1529 1530 1530 1531 1532 1532 1532 1532 1533 1533 1534 1534 1535 1535 1536 1536 1536 1537 1537 1538 1539 1539 1539 1539 1540 1541 1541 1541 1541 1541 1541 1541 1542 1542 1542 1543 1544 1545 1546 1547 1547 1547 1547 1548 1549 1549 1550 1551 1552 1553 1554 1555 1557 1558 1559 1560 1561 1562 1562 1563 1563
1528 1528 1529 1530 1531 1531 1531 1532 1532 1532 1532 1533 1534 1534 1535 1535 1535 1536 1537 1537 1537 1537 1538 1538 1538 1539 1540 1540 1540 1539 1539 1540 1540 1540 1541 1541 1541 1542 1544 1545 1546 1546 1547 1547 1547 1548 1548 1549 1550 1550 1551 1552 1553 1554 1555 1557 1558 1560 1560 1561 1561 1562
1527 1528 1529 1529 1530 1530 1531 1531 1531 1532 1532 1533 1534 1534 1535 1535 1535 1536 1536 1536 1536 1536 1537 1537 1538 1538 1538 1538 1538 1538 1538 1538 1538 1539 1539 1540 1540 1541 1542 1543 1544 1545 1545 1546 1547 1547 1547 1548 1549 1549 1550 1551 1551 1552 1553 1555 1556 1558 1559 1559 1560 1561
1527 1527 1528 1529 1529 1530 1530 1531 1531 1532 1532 1532 1533 1534 1535 1535 1535 1535 1535 1535 1535 1536 1536 1537 1537 1537 1537 1537 1536 1536 1537 1537 1537 1538 1538 1539 1540 1540 1541 1542 1543 1543 1544 1545 1546 1546 1546 1547 1548 1548 1549 1549 1550 1550 1551 1552 1554 1555 1557 1558 1558 1559
1527 1527 1528 1528 1529 1530 1530 1531 1531 1531 1532 1532 1533 1534 1534 1534 1534 1535 1534 1534 1534 1535 1535 1535 1536 1536 1536 1536 1535 1535 1535 1535 1536 1536 1537 1538 1538 1539 1540 1540 1541 1542 1543 1544 1544 1545 1545 1546 1547 1548 1548 1548 1549 1549 1550 1550 1552 1553 1554 1556 1557 1558
1527 1527 1528 1528 1529 1530 1531 1531 1531 1532 1532 1533 1534 1534 1534 1534 1534 1534 1534 1534 1534 1534 1534 1534 1534 1535 1535 1534 1534 1534 1534 1534 1535 1535 1536 1537 1537 1538 1538 1538 1539 1540 1541 1541 1543 1543 1544 1545 1546 1546 1547 1548 1548 1548 1549 1549 1550 1551 1553 1554 1555 1556
1526 1527 1527 1528 1529 1530 1531 1531 1532 1532 1533 1533 1534 1534 1534 1534 1534 1534 1534 1533 1533 1533 1533 1533 1533 1534 1534 1533 1534 1534 1534 1534 1534 1535 1535 1536 1536 1537 1537 1537 1538 1538 1539 1539 1541 1542 1543 1544 1544 1545 1546 1547 1547 1547 1548 1548 1549 1550 1551 1552 1553 1554
1526 1527 1527 1528 1529 1529 1530 1531 1532 1532 1533 1534 1534 1534 1534 1534 1534 1533 1533 1533 1533 1533 1533 1532 1533 1533 1533 1534 1534 1534 1534 1535 1535 1535 1535 1535 1536 1536 1536 1536 1537 1537 1537 1538 1539 1541 1542 1543 1543 1544 1545 1545 1546 1546 1546 1547 1547 1548 1549 1551 1551 1552
1525 1526 1526 1527 1528 1529 1529 1530 1531 1532 1532 1533 1533 1534 1534 1534 1534 1534 1533 1533 1533 1533 1533 1533 1533 1533 1534 1534 1534 1535 1535 1535 1535 1535 1535 1535 1535 1536 1536 1536 1536 1537 1537 1537 1538 1539 1540 1541 1541 1543 1544 1544 1544 1545 1546 1546 1546 1547 1547 1548 1550 1550
1524 1525 1526 1526 1527 1528 1528 1529 1530 1531 1531 1532 1533 1533 1534 1534 1534 1534 1534 1533 1533 1533 1533 1533 1533 1534 1534 1534 1534 1535 1535 1535 1535 1535 1536 1535 1536 1536 1536 1536 1536 1536 1536 1536 1537 1538 1539 1539 1540 1541 1543 1543 1543 1544 1544 1545 1546 1546 1546 1547 1548 1549
1524 1525 1525 1526 1526 1527 1528 1528 1529 1530 1531 1532 1532 1533 1534 1534 1534 1534 1534 1534 1533 1533 1533 1533 1534 1534 1534 1534 1534 1534 1535 1535 1535 1535 1536 1536 1536 1536 1536 1536 1536 1536 1536 1536 1537 1537 1538 1538 1539 1540 1541 1542 1542 1543 1543 1544 1545 1545 1545 1546 1546 1547
1522 1523 1524 1525 1526 1526 1527 1528 1529 1530 1531 1532 1533 1534 1534 1534 1535 1535 1534 1534 1534 1534 1534 1534 1534 1534 1534 1534 1534 1534 1534 1535 1535 1535 1535 1536 1536 1536 1536 1536 1536 1536 1536 1536 1536 1537 1537 1538 1538 1539 1540 1540 1541 1542 1542 1543 1544 1544 1544 1544 1544 1545
1521 1522 1523 1524 1525 1526 1526 1527 1529 1530 1531 1532 1533 1534 1534 1534 1535 1535 1535 1534 1534 1534 1534 1534 1534 1534 1534 1534 1534 1534 1534 1535 1535 1535 1535 1535 1535 1535 1535 1535 1535 1536 1536 1536 1537 1537 1537 1538 1538 1538 1538 1539 1539 1540 1541 1541 1542 1543 1543 1543 1543 1543
1520 1521 1522 1523 1524 1525 1526 1527 1528 1529 1530 1532 1533 1533 1533 1534 1535 1535 1535 1535 1535 1535 1535 1535 1535 1534 1534 1534 1534 1534 1534 1534 1535 1535 1535 1535 1534 1534 1534 1534 1534 1535 1535 1536 1536 1537 1537 1538 1538 1537 1538 1538 1538 1539 1540 1540 1540 1541 1542 1542 1542 1543
1518 1520 1521 1522 1523 1524 1525 1526 1528 1529 1530 1531 1532 1532 1533 1534 1534 1535 1535 1535 1535 1535 1535 1535 1535 1535 1535 1535 1535 1535 1535 1535 1535 1535 1535 1535 1535 1534 1534 1534 1534 1535 1535 1535 1535 1536 1537 1538 1538 1538 1538 1538 1538 1539 1540 1540 1540 1540 1541 1541 1542 1542
1516 1518 1519 1521 1522 1523 1525 1526 1527 1528 1529 1530 1531 1532 1533 1533 1534 1534 1535 1535 1535 1535 1535 1536 1536 1536 1536 1536 1535 1535 1535 1535 1535 1536 1536 1535 1535 1535 1535 1535 1535 1535 1535 1535 1536 1536 1536 1537 1537 1537 1538 1538 1539 1540 1540 1540 1540 1540 1540 1541 1541 1541
1515 1517 1518 1519 1521 1522 1523 1525 1526 1527 1528 1529 1530 1531 1532 1532 1533 1534 1534 1535 1535 1535 1536 1536 1536 1536 1536 1536 1536 1536 1536 1536 1536 1536 1536 1536 1535 1535 1535 1535 1535 1535 1535 1536 1536 1536 1536 1536 1536 1537 1537 1538 1538 1538 1539 1539 1540 1540 1540 1541 1541 1541
1513 1515 1516 1518 1519 1521 1522 1523 1525 1526 1527 1528 1529 1530 1531 1532 1533 1533 1534 1534 1535 1535 1535 1536 1536 1536 1536 1536 1536 1536 1536 1536 1536 1536 1536 1536 1536 1536 1536 1536 1536 1536 1536 1536 1536 1536 1536 1536 1536 1536 1536 1537 1537 1537 1537 1538 1538 1538 1539 1539 1539 1539
1510 1513 1514 1516 1518 1519 1521 1522 1524 1525 1526 1527 1528 1529 1530 1531 1532 1533 1534 1534 1535 1535 1535 1535 1536 1536 1536 1536 1536 1537 1537 1537 1537 1537 1537 1537 1537 1536 1536 1536 1536 1536 1536 1536 1536 1536 1536 1536 1536 1536 1536 1536 1536 1536 1536 1536 1537 1537 1537 1537 1538 1538
1508 1511 1512 1514 1516 1518 1519 1521 1522 1524 1525 1526 1527 1529 1529 1530 1531 1532 1533 1533 1534 1535 1535 1535 1535 1536 1536 1536 1536 1537 1537 1537 1537 1537 1537 1537 1537 1537 1536 1536 1536 1536 1536 1536 1536 1535 1536 1535 1535 1535 1535 1535 1536 1536 1536 1535 1536 1536 1536 1536 1536 1537
1507 1508 1511 1512 1514 1516 1518 1520 1521 1522 1524 1525 1526 1528 1529 1530 1530 1531 1532 1533 1533 1534 1535 1535 1535 1535 1535 1536 1536 1536 1536 1536 1536 1536 1536 1536 1536 1536 1536 1536 1536 1536 1536 1535 1535 1535 1535 1535 1535 1535 1535 1535 1535 1535 1535 1535 1535 1535 1535 1534 1534 1535
1505 1507 1509 1511 1513 1515 1517 1518 1519 1521 1522 1524 1525 1526 1527 1528 1529 1530 1531 1532 1532 1533 1534 1534 1534 1534 1535 1535 1535 1536 1536 1536 1536 1536 1536 1536 1536 1536 1536 1536 1536 1536 1535 1535 1535 1535 1535 1535 1535 1535 1535 1535 1535 1535 1534 1534 1534 1534 1534 1533 1533 1533
1504 1506 1508 1511 1512 1514 1515 1517 1518 1519 1521 1522 1523 1525 1526 1527 1528 1529 1530 1530 1531 1532 1533 1533 1533 1533 1534 1534 1535 1535 1535 1535 1535 1535 1535 1535 1535 1535 1535 1535 1535 1535 1535 1535 1535 1535 1534 1534 1534 1534 1534 1534 1534 1534 1534 1533 1533 1533 1532 1532 1532 1532